User: anonymous   Login
Location: Unspecified
(0.0000°N, 0.0000°E)
Time: 04:37:17
(UTC+00:00)
Language:

ALMASAT-1 - Orbit

View from above orbital plane
View from above orbital plane
View from above satellite
View from above satellite

Ground track
Ground track

The orbit data is extracted from the following two-line orbital elements,

1 38078U 12006B   17324.83147770  .00019133  36888-5  20295-3 0  9995
2 38078  69.4349  68.6284 0277701  58.3248  77.0671 15.29849966308672
Epoch (UTC): 20 November 2017 19:57:19
Eccentricity: 0.0277701
inclination: 69.4349°
perigee height: 286 km
apogee height: 666 km
right ascension of ascending node: 68.6284°
argument of perigee: 58.3248°
revolutions per day: 15.29849966
mean anomaly at epoch: 77.0671°
orbit number at epoch: 30867

The dashed part of the orbit path shows where the satellite is in the earth's shadow,  

DLR